This demonstration page uses our WeatherBlox Daily Observations layout. Learn more.

Left ArrowRight Arrow

38.80484, -77.04692

Hourly Observations for October 8, 2021

Temp ( °F °C ) Dew Point ( °F °C ) Humidity (%) Winds ( mph kmh ) Pressure ( in mb ) Visibility ( mi km ) Precip ( " mm )
12:52 am 00:52 Mostly Cloudy 68 20 64 17.8 87 87 SSW 3 6 30.17 1022 10 16 0.00 0.00
1:52 am 01:52 Cloudy 68 20 64 17.8 87 87 Calm 30.18 1022 10 16 0.00 0.00
2:52 am 02:52 Mostly Cloudy 69 20.6 63 17.2 81 81 Calm 30.16 1021 10 16 0.00 0.00
3:52 am 03:52 Cloudy 67 19.4 61 16.1 81 81 N 3 6 30.15 1021 10 16 0.00 0.00
4:50 am 04:50 Cloudy 66 19 63 17 88 88 Calm 30.15 1021 10 16 0.00 0.00
4:52 am 04:52 Cloudy 67 19.4 63 17.2 87 87 Calm 30.15 1021 10 16 0.00 0.00
5:31 am 05:31 Partly Cloudy 68 20 62 16.7 81 81 Calm 30.15 1021 10 16 0.00 0.00
5:52 am 05:52 Partly Cloudy 67 19.4 62 16.7 84 84 Calm 30.15 1021 10 16 0.00 0.00
6:52 am 06:52 Mostly Cloudy 67 19.4 63 17.2 87 87 E 3 6 30.15 1021 10 16 0.00 0.00
7:52 am 07:52 Mostly Cloudy 67 19.4 63 17.2 87 87 Calm 30.16 1022 10 16 0.00 0.00
8:52 am 08:52 Mostly Cloudy 70 21.1 64 17.8 82 82 Calm 30.17 1022 10 16 0.00 0.00
9:52 am 09:52 Mostly Cloudy 71 21.7 64 17.8 79 79 SE 3 6 30.17 1022 10 16 0.00 0.00
10:52 am 10:52 Mostly Cloudy 75 23.9 63 17.2 66 66 E 3 6 30.17 1022 10 16 0.00 0.00
11:52 am 11:52 Mostly Cloudy 74 23.3 60 15.6 62 62 Calm 30.16 1022 10 16 0.00 0.00
12:52 pm 12:52 Mostly Cloudy 75 23.9 60 15.6 60 60 Calm 30.16 1021 10 16 0.00 0.00
1:52 pm 13:52 Mostly Cloudy 77 25 58 14.4 52 52 ESE 3 6 30.14 1021 10 16 0.00 0.00
2:52 pm 14:52 Mostly Cloudy 77 25 58 14.4 52 52 Calm 30.11 1020 10 16 0.00 0.00
3:52 pm 15:52 Mostly Cloudy 76 24.4 60 15.6 58 58 SE 8 13 30.10 1019 10 16 0.00 0.00
4:52 pm 16:52 Mostly Cloudy 75 23.9 60 15.6 60 60 SSE 6 9 30.10 1019 10 16 0.00 0.00
5:52 pm 17:52 Mostly Cloudy 74 23.3 60 15.6 62 62 SE 5 7 30.10 1019 10 16 0.00 0.00
6:52 pm 18:52 Mostly Cloudy 74 23.3 58 14.4 57 57 SE 6 9 30.11 1020 10 16 0.00 0.00
7:52 pm 19:52 Mostly Cloudy 72 22.2 59 15 64 64 SSE 3 6 30.11 1020 10 16 0.00 0.00
8:52 pm 20:52 Mostly Cloudy 71 21.7 61 16.1 71 71 SSE 3 6 30.12 1020 10 16 0.00 0.00
9:52 pm 21:52 Cloudy 70 21.1 60 15.6 71 71 Calm 30.11 1020 10 16 0.00 0.00
10:52 pm 22:52 Cloudy 71 21.7 61 16.1 71 71 SE 3 6 30.11 1020 10 16 0.00 0.00
11:52 pm 23:52 Mostly Cloudy 70 21.1 61 16.1 73 73 SE 9 15 30.12 1020 10 16 0.00 0.00

Powered by AerisWeather